VKG4445 LGSA-ESSA

Flight info

Callsign VKG4445
Flight time N/A
Altitude 34000
Route SOKRI UY151 DDM DCT BAMOS/N0446F330 DCT PEREN/N0450F340 DCT ATFIR DCT OVDOT DCT KEKED DCT LENOV N133 PENOR/N0447F350 DCT VSB/N0447F360 DCT ROGMI/N0446F350 Z229 NILUG
Aircraft A321/M-SDE3FGHIRWY/LB1

Departure

Time 2026-04-30 19:30
Airport Chania International Airport (LGSA)

Arrival

Time N/A
Airport Stockholm-Arlanda Airport (ESSA)
Time Latitude Longitude Altitude Speed Heading
2026-04-30 18:11 35.53912 24.13955 498 ft 0 kts 21°
2026-04-30 19:15 35.53900 24.13949 490 ft 4 kts 32°
2026-04-30 19:15 35.53863 24.13911 488 ft 4 kts 44°
2026-04-30 19:15 35.53849 24.13887 487 ft 4 kts 84°
2026-04-30 19:16 35.53852 24.13858 489 ft 2 kts 111°
2026-04-30 19:16 35.53853 24.13852 488 ft 0 kts 111°
2026-04-30 19:19 35.53843 24.13884 487 ft 8 kts 112°
2026-04-30 19:20 35.53817 24.13965 490 ft 10 kts 111°
2026-04-30 19:20 35.53793 24.14039 492 ft 9 kts 111°
2026-04-30 19:20 35.53753 24.14168 498 ft 7 kts 111°
2026-04-30 19:21 35.53735 24.14221 495 ft 7 kts 111°
2026-04-30 19:21 35.53668 24.14372 496 ft 7 kts 188°
2026-04-30 19:22 35.53552 24.14391 496 ft 15 kts 109°
2026-04-30 19:22 35.53420 24.14801 489 ft 16 kts 113°
2026-04-30 19:23 35.53286 24.15208 487 ft 20 kts 111°
2026-04-30 19:24 35.53188 24.15510 488 ft 22 kts 113°
2026-04-30 19:24 35.53124 24.15706 494 ft 25 kts 111°
2026-04-30 19:24 35.53004 24.16078 498 ft 22 kts 112°
2026-04-30 19:25 35.52850 24.16550 496 ft 18 kts 112°
2026-04-30 19:26 35.52766 24.16808 493 ft 15 kts 112°
2026-04-30 19:26 35.52683 24.17062 492 ft 16 kts 112°
2026-04-30 19:26 35.52665 24.17180 492 ft 13 kts 59°
2026-04-30 19:27 35.52704 24.17104 496 ft 10 kts 246°
2026-04-30 19:27 35.52727 24.16906 488 ft 10 kts 260°
2026-04-30 19:28 35.52680 24.16872 489 ft 7 kts 201°
2026-04-30 19:28 35.52589 24.16824 494 ft 10 kts 223°
2026-04-30 19:29 35.52611 24.16712 495 ft 7 kts 292°
2026-04-30 19:29 35.52680 24.16503 495 ft 58 kts 292°
2026-04-30 19:30 35.53759 24.13226 693 ft 184 kts 293°
2026-04-30 19:30 35.54544 24.10335 2118 ft 177 kts 286°
2026-04-30 19:31 35.55364 24.07249 2639 ft 208 kts 287°
2026-04-30 19:31 35.55844 24.05506 2771 ft 229 kts 288°
2026-04-30 19:31 35.56929 24.01635 3554 ft 252 kts 288°
2026-04-30 19:32 35.57516 23.99568 4233 ft 256 kts 288°
2026-04-30 19:32 35.58099 23.97520 4934 ft 259 kts 289°
2026-04-30 19:32 35.58696 23.95419 5619 ft 261 kts 289°
2026-04-30 19:32 35.59374 23.93339 6305 ft 264 kts 302°
2026-04-30 19:33 35.60658 23.91732 6937 ft 267 kts 327°
2026-04-30 19:33 35.62417 23.90979 7583 ft 274 kts 352°
2026-04-30 19:33 35.64335 23.91263 8212 ft 283 kts 18°
2026-04-30 19:33 35.65970 23.92608 8824 ft 294 kts 46°
2026-04-30 19:34 35.66947 23.94841 9415 ft 304 kts 76°
2026-04-30 19:34 35.66918 23.97448 9982 ft 311 kts 107°
2026-04-30 19:34 35.64402 24.01852 10630 ft 335 kts 121°
2026-04-30 19:35 35.63654 24.04626 10761 ft 351 kts 92°
2026-04-30 19:35 35.64013 24.07629 10901 ft 363 kts 67°
2026-04-30 19:35 35.65222 24.10374 11287 ft 366 kts 49°
2026-04-30 19:35 35.67051 24.12519 11813 ft 363 kts 30°
2026-04-30 19:36 35.69303 24.13770 12351 ft 359 kts 10°
2026-04-30 19:36 35.71774 24.14030 12906 ft 355 kts 351°
2026-04-30 19:36 35.76171 24.11653 14005 ft 351 kts 315°
2026-04-30 19:37 35.77882 24.09492 14511 ft 353 kts 312°
2026-04-30 19:37 35.79587 24.07287 15029 ft 356 kts 312°
2026-04-30 19:37 35.81302 24.05067 15526 ft 358 kts 312°
2026-04-30 19:37 35.83004 24.02863 16019 ft 361 kts 312°
2026-04-30 19:38 35.84748 24.00610 16519 ft 364 kts 312°
2026-04-30 19:38 35.86506 23.98343 17009 ft 367 kts 312°
2026-04-30 19:38 35.88276 23.96058 17499 ft 369 kts 311°
2026-04-30 19:38 35.90059 23.93748 17981 ft 372 kts 311°
2026-04-30 19:39 35.91850 23.91432 18434 ft 374 kts 311°
2026-04-30 19:39 35.93634 23.89126 18840 ft 377 kts 311°
2026-04-30 19:39 35.95450 23.86772 19245 ft 379 kts 311°
2026-04-30 19:39 35.97269 23.84412 19649 ft 381 kts 311°
2026-04-30 19:40 35.99105 23.82028 20053 ft 383 kts 311°
2026-04-30 19:40 36.00950 23.79634 20456 ft 385 kts 311°
2026-04-30 19:40 36.02779 23.77258 20857 ft 387 kts 311°
2026-04-30 19:40 36.04638 23.74838 21261 ft 389 kts 311°
2026-04-30 19:41 36.06504 23.72404 21660 ft 391 kts 311°
2026-04-30 19:41 36.08381 23.69954 22046 ft 393 kts 311°
2026-04-30 19:41 36.10252 23.67510 22437 ft 395 kts 311°
2026-04-30 19:41 36.12151 23.65029 22811 ft 397 kts 311°
2026-04-30 19:42 36.14061 23.62528 23193 ft 399 kts 311°
2026-04-30 19:42 36.15977 23.60018 23584 ft 401 kts 311°
2026-04-30 19:42 36.17880 23.57528 23888 ft 403 kts 311°
2026-04-30 19:42 36.19815 23.55001 24195 ft 405 kts 311°
2026-04-30 19:43 36.21755 23.52465 24511 ft 407 kts 311°
2026-04-30 19:43 36.23827 23.50043 24813 ft 410 kts 320°
2026-04-30 19:43 36.26231 23.48104 25097 ft 415 kts 330°
2026-04-30 19:44 36.31782 23.45949 25668 ft 426 kts 347°
2026-04-30 19:44 36.34683 23.45359 25951 ft 428 kts 347°
2026-04-30 19:44 36.37627 23.44755 26230 ft 430 kts 347°
2026-04-30 19:44 36.40594 23.44144 26510 ft 431 kts 347°
2026-04-30 19:45 36.43562 23.43531 26808 ft 433 kts 347°
2026-04-30 19:45 36.46549 23.42913 27088 ft 435 kts 347°
2026-04-30 19:45 36.49550 23.42293 27355 ft 437 kts 347°
2026-04-30 19:45 36.52513 23.41681 27618 ft 439 kts 347°
2026-04-30 19:46 36.55537 23.41054 27877 ft 440 kts 348°
2026-04-30 19:46 36.58571 23.40423 28131 ft 442 kts 348°
2026-04-30 19:46 36.60588 23.40004 28300 ft 443 kts 348°
2026-04-30 19:46 36.64632 23.39165 28648 ft 445 kts 348°
2026-04-30 19:47 36.67713 23.38526 28890 ft 447 kts 348°
2026-04-30 19:47 36.69742 23.38104 29059 ft 448 kts 348°
2026-04-30 19:47 36.72832 23.37460 29309 ft 450 kts 348°
2026-04-30 19:47 36.76931 23.36603 29762 ft 449 kts 348°
2026-04-30 19:48 36.78974 23.36177 29997 ft 448 kts 348°
2026-04-30 19:48 36.82048 23.35537 30311 ft 447 kts 347°
2026-04-30 19:48 36.85117 23.34899 30626 ft 446 kts 347°
2026-04-30 19:48 36.88186 23.34260 30938 ft 444 kts 347°
2026-04-30 19:49 36.91197 23.33630 31262 ft 443 kts 347°
2026-04-30 19:49 36.97268 23.32362 31910 ft 440 kts 347°
2026-04-30 19:49 37.00295 23.31733 32233 ft 439 kts 347°
2026-04-30 19:50 37.03311 23.31104 32551 ft 437 kts 347°
2026-04-30 19:50 37.06306 23.30474 32871 ft 436 kts 347°
2026-04-30 19:50 37.09262 23.29849 33186 ft 434 kts 346°
2026-04-30 19:50 37.12236 23.29222 33501 ft 433 kts 346°
2026-04-30 19:51 37.15211 23.28597 33810 ft 432 kts 346°
2026-04-30 19:51 37.18172 23.27976 33964 ft 430 kts 346°
2026-04-30 19:51 37.24049 23.26740 33995 ft 426 kts 346°
2026-04-30 19:52 37.29856 23.25511 33995 ft 425 kts 346°
2026-04-30 19:52 37.35698 23.24280 34000 ft 424 kts 346°
2026-04-30 19:53 37.41496 23.23052 34001 ft 424 kts 346°
2026-04-30 19:53 37.47360 23.22016 34003 ft 428 kts 354°
2026-04-30 19:54 37.53303 23.22748 34015 ft 434 kts
2026-04-30 19:54 37.59299 23.23859 34016 ft 434 kts
2026-04-30 19:55 37.65154 23.24936 34014 ft 434 kts
2026-04-30 19:55 37.71142 23.26041 34025 ft 434 kts
2026-04-30 19:56 37.77092 23.27150 34028 ft 434 kts
2026-04-30 19:56 37.83073 23.28262 34030 ft 433 kts
2026-04-30 19:57 37.89015 23.29364 34034 ft 433 kts
2026-04-30 19:57 37.94986 23.30476 34033 ft 434 kts
2026-04-30 19:58 38.00938 23.31595 34030 ft 434 kts
2026-04-30 19:58 38.06926 23.32728 34028 ft 434 kts
2026-04-30 19:59 38.12905 23.33853 34030 ft 435 kts
2026-04-30 20:00 38.21883 23.35530 34030 ft 435 kts
2026-04-30 20:00 38.27849 23.36647 34036 ft 436 kts
2026-04-30 20:01 38.36879 23.38364 34043 ft 437 kts
2026-04-30 20:01 38.42868 23.39492 34056 ft 437 kts
2026-04-30 20:02 38.51921 23.41210 34058 ft 438 kts
2026-04-30 20:03 38.60966 23.42939 34065 ft 439 kts
2026-04-30 20:03 38.67026 23.44096 34079 ft 439 kts
2026-04-30 20:04 38.73051 23.45233 34088 ft 440 kts
2026-04-30 20:05 38.82159 23.46966 34091 ft 440 kts
2026-04-30 20:05 38.91234 23.48721 34102 ft 441 kts
2026-04-30 20:06 38.97315 23.49895 34106 ft 441 kts
2026-04-30 20:06 39.03405 23.51063 34109 ft 442 kts
2026-04-30 20:07 39.09463 23.52224 34108 ft 442 kts
2026-04-30 20:08 39.18583 23.53992 34105 ft 443 kts
2026-04-30 20:08 39.24695 23.55175 34107 ft 444 kts
2026-04-30 20:09 39.30776 23.56400 34105 ft 446 kts
2026-04-30 20:09 39.39924 23.59163 34101 ft 450 kts
2026-04-30 20:10 39.49011 23.62147 34111 ft 450 kts
2026-04-30 20:11 39.58146 23.64942 34110 ft 451 kts
2026-04-30 20:11 39.64263 23.66807 34109 ft 452 kts
2026-04-30 20:12 39.73429 23.69655 34120 ft 452 kts
2026-04-30 20:13 39.79528 23.71551 34123 ft 452 kts
2026-04-30 20:13 39.85669 23.73462 34134 ft 453 kts
2026-04-30 20:14 39.91774 23.75365 34134 ft 453 kts
2026-04-30 20:14 39.97924 23.77282 34135 ft 453 kts
2026-04-30 20:15 40.04024 23.79190 34134 ft 453 kts
2026-04-30 20:15 40.10160 23.81113 34137 ft 453 kts
2026-04-30 20:16 40.16296 23.83044 34134 ft 453 kts
2026-04-30 20:16 40.22424 23.84979 34140 ft 453 kts
2026-04-30 20:17 40.28515 23.86904 34144 ft 453 kts
2026-04-30 20:17 40.34654 23.88835 34154 ft 453 kts
2026-04-30 20:18 40.40802 23.90777 34154 ft 453 kts
2026-04-30 20:18 40.46941 23.92730 34157 ft 453 kts
2026-04-30 20:19 40.52971 23.94642 34152 ft 453 kts
2026-04-30 20:19 40.59128 23.96132 34146 ft 441 kts 354°
2026-04-30 20:20 40.65084 23.95499 34140 ft 426 kts 341°
2026-04-30 20:20 40.70932 23.94097 34140 ft 427 kts 341°
2026-04-30 20:21 40.76796 23.92702 34142 ft 427 kts 341°
2026-04-30 20:21 40.82600 23.91329 34139 ft 428 kts 341°
2026-04-30 20:22 40.88521 23.89927 34141 ft 428 kts 341°
2026-04-30 20:22 40.94359 23.88519 34152 ft 428 kts 341°
2026-04-30 20:23 41.00242 23.87102 34148 ft 428 kts 341°
2026-04-30 20:23 41.06075 23.85703 34158 ft 429 kts 341°
2026-04-30 20:24 41.11952 23.84290 34153 ft 429 kts 341°
2026-04-30 20:24 41.17812 23.82878 34153 ft 429 kts 341°
2026-04-30 20:25 41.26651 23.80746 34157 ft 431 kts 340°
2026-04-30 20:26 41.35522 23.78589 34164 ft 432 kts 340°
2026-04-30 20:26 41.44376 23.76442 34175 ft 434 kts 341°
2026-04-30 20:27 41.56292 23.73565 34186 ft 434 kts 341°
2026-04-30 20:28 41.68178 23.70669 34203 ft 436 kts 341°
2026-04-30 20:30 41.83130 23.67027 34204 ft 436 kts 341°
2026-04-30 20:31 42.01058 23.62618 34803 ft 438 kts 342°
2026-04-30 20:32 42.10070 23.60393 35254 ft 439 kts 342°
2026-04-30 20:32 42.16090 23.58917 35261 ft 440 kts 343°
2026-04-30 20:33 42.25140 23.56674 35273 ft 440 kts 342°
2026-04-30 20:34 42.34145 23.54427 35276 ft 440 kts 343°
2026-04-30 20:35 42.43154 23.52182 35295 ft 440 kts 343°
2026-04-30 20:35 42.52166 23.49926 35305 ft 440 kts 343°
2026-04-30 20:36 42.57173 23.48676 35317 ft 440 kts 343°
2026-04-30 20:37 42.66230 23.46399 35318 ft 440 kts 343°
2026-04-30 20:37 42.72222 23.44891 35321 ft 440 kts 343°
2026-04-30 20:38 42.78266 23.43369 35324 ft 441 kts 344°
2026-04-30 20:38 42.84269 23.41861 35322 ft 441 kts 344°
2026-04-30 20:39 42.93323 23.39568 35325 ft 440 kts 344°
2026-04-30 20:40 43.02301 23.37285 35332 ft 440 kts 344°
2026-04-30 20:40 43.08328 23.35746 35342 ft 440 kts 344°
2026-04-30 20:41 43.17320 23.33438 35346 ft 439 kts 344°
2026-04-30 20:41 43.23346 23.31894 35356 ft 440 kts 344°
2026-04-30 20:42 43.29369 23.30355 35358 ft 440 kts 345°
2026-04-30 20:43 43.38374 23.28046 35362 ft 440 kts 345°
2026-04-30 20:43 43.44398 23.26486 35371 ft 440 kts 345°
2026-04-30 20:44 43.53397 23.24155 35374 ft 440 kts 345°
2026-04-30 20:45 43.65402 23.21037 35375 ft 439 kts 345°
2026-04-30 20:45 43.71426 23.19471 35377 ft 440 kts 345°
2026-04-30 20:46 43.83432 23.16351 35382 ft 439 kts 345°
2026-04-30 20:47 43.92440 23.13987 35384 ft 438 kts 345°
2026-04-30 20:48 44.01402 23.11632 35385 ft 438 kts 345°
2026-04-30 20:48 44.07392 23.10053 35388 ft 437 kts 345°
2026-04-30 20:49 44.13359 23.08475 35385 ft 436 kts 346°
2026-04-30 20:50 44.22292 23.06113 35386 ft 436 kts 346°
2026-04-30 20:50 44.28262 23.04528 35388 ft 436 kts 346°
2026-04-30 20:51 44.34190 23.02947 35389 ft 436 kts 346°
2026-04-30 20:51 44.43132 23.00574 35384 ft 436 kts 346°
2026-04-30 20:52 44.49057 22.98987 35385 ft 436 kts 346°
2026-04-30 20:53 44.57960 22.96320 35375 ft 434 kts 342°
2026-04-30 20:53 44.63727 22.93998 35381 ft 433 kts 340°
2026-04-30 20:54 44.72418 22.90376 35377 ft 433 kts 341°
2026-04-30 20:55 44.81113 22.86945 35378 ft 434 kts 342°
2026-04-30 20:55 44.86933 22.84659 35381 ft 434 kts 342°
2026-04-30 20:56 44.95637 22.81193 35383 ft 434 kts 342°
2026-04-30 20:57 45.04365 22.77713 35378 ft 434 kts 342°
2026-04-30 20:57 45.10189 22.75387 35381 ft 434 kts 342°
2026-04-30 20:58 45.18881 22.71907 35379 ft 434 kts 342°
2026-04-30 20:58 45.24699 22.69557 35385 ft 434 kts 342°
2026-04-30 20:59 45.33393 22.66059 35377 ft 433 kts 343°
2026-04-30 21:00 45.44991 22.61377 35376 ft 432 kts 343°
2026-04-30 21:01 45.53633 22.57848 35368 ft 431 kts 343°
2026-04-30 21:02 45.62298 22.54325 35369 ft 430 kts 343°
2026-04-30 21:02 45.68027 22.51985 35360 ft 430 kts 343°
2026-04-30 21:03 45.73788 22.49624 35355 ft 430 kts 343°
2026-04-30 21:03 45.79518 22.47277 35349 ft 430 kts 343°
2026-04-30 21:04 45.85282 22.44911 35344 ft 430 kts 343°
2026-04-30 21:04 45.93889 22.41364 35337 ft 430 kts 343°
2026-04-30 21:05 45.99653 22.38973 35345 ft 430 kts 343°
2026-04-30 21:05 46.05379 22.36593 35354 ft 430 kts 343°
2026-04-30 21:06 46.11142 22.34209 35355 ft 430 kts 343°
2026-04-30 21:06 46.16907 22.31821 35357 ft 430 kts 344°
2026-04-30 21:07 46.22664 22.29432 35358 ft 429 kts 344°
2026-04-30 21:07 46.28381 22.27039 35356 ft 429 kts 344°
2026-04-30 21:08 46.34085 22.24648 35360 ft 429 kts 344°
2026-04-30 21:08 46.39819 22.22239 35358 ft 428 kts 344°
2026-04-30 21:09 46.45543 22.19830 35354 ft 428 kts 344°
2026-04-30 21:09 46.51232 22.17429 35347 ft 427 kts 344°
2026-04-30 21:10 46.56941 22.15012 35346 ft 427 kts 344°
2026-04-30 21:10 46.62653 22.12597 35344 ft 427 kts 344°
2026-04-30 21:11 46.68375 22.10182 35345 ft 427 kts 344°
2026-04-30 21:11 46.74107 22.07747 35345 ft 427 kts 344°
2026-04-30 21:12 46.79770 22.05327 35349 ft 427 kts 344°
2026-04-30 21:12 46.85486 22.02880 35355 ft 427 kts 345°
2026-04-30 21:13 46.91205 22.00422 35359 ft 427 kts 345°
2026-04-30 21:13 46.96866 21.97995 35358 ft 427 kts 345°
2026-04-30 21:14 47.02579 21.95549 35358 ft 427 kts 345°
2026-04-30 21:14 47.08280 21.93093 35356 ft 427 kts 345°
2026-04-30 21:15 47.13950 21.90637 35353 ft 427 kts 345°
2026-04-30 21:15 47.19660 21.88166 35350 ft 426 kts 345°
2026-04-30 21:16 47.25365 21.85693 35350 ft 426 kts 345°
2026-04-30 21:16 47.31031 21.83229 35353 ft 426 kts 345°
2026-04-30 21:17 47.36739 21.80757 35354 ft 426 kts 345°
2026-04-30 21:17 47.42436 21.78280 35355 ft 426 kts 345°
2026-04-30 21:18 47.48104 21.75798 35358 ft 426 kts 345°
2026-04-30 21:18 47.53792 21.73297 35359 ft 426 kts 345°
2026-04-30 21:19 47.59499 21.70780 35363 ft 426 kts 345°
2026-04-30 21:19 47.65195 21.68266 35360 ft 427 kts 345°
2026-04-30 21:20 47.70859 21.65761 35364 ft 426 kts 345°
2026-04-30 21:20 47.76521 21.63247 35380 ft 426 kts 346°
2026-04-30 21:21 47.82211 21.60717 35386 ft 425 kts 346°
2026-04-30 21:22 47.90716 21.56932 35389 ft 425 kts 346°
2026-04-30 21:23 48.02015 21.51898 35390 ft 423 kts 346°
2026-04-30 21:23 48.10457 21.48105 35373 ft 423 kts 346°
2026-04-30 21:24 48.16083 21.45568 35368 ft 423 kts 346°
2026-04-30 21:24 48.21730 21.43025 35372 ft 422 kts 346°
2026-04-30 21:25 48.30147 21.39223 35365 ft 422 kts 346°
2026-04-30 21:26 48.37678 21.35800 35367 ft 422 kts 346°
2026-04-30 21:27 48.46084 21.31970 35366 ft 421 kts 347°
2026-04-30 21:27 48.51664 21.29431 35362 ft 421 kts 347°
2026-04-30 21:28 48.60183 21.26265 35363 ft 418 kts 352°
2026-04-30 21:29 48.68699 21.23559 35362 ft 418 kts 351°
2026-04-30 21:30 48.82886 21.18687 35365 ft 417 kts 351°
2026-04-30 21:31 48.96893 21.13832 35380 ft 416 kts 351°
2026-04-30 21:32 49.05460 21.10857 35398 ft 415 kts 351°
2026-04-30 21:32 49.11095 21.08907 35392 ft 414 kts 351°
2026-04-30 21:33 49.19491 21.05986 35400 ft 412 kts 352°
2026-04-30 21:34 49.25055 21.04045 35398 ft 412 kts 352°
2026-04-30 21:34 49.33461 21.01055 35398 ft 413 kts 348°
2026-04-30 21:35 49.38867 20.98090 35400 ft 415 kts 345°
2026-04-30 21:35 49.44260 20.95036 35396 ft 414 kts 345°
2026-04-30 21:36 49.49657 20.91983 35398 ft 414 kts 345°
2026-04-30 21:37 49.60449 20.85870 35400 ft 413 kts 345°
2026-04-30 21:37 49.65837 20.82793 35401 ft 413 kts 345°
2026-04-30 21:38 49.71239 20.79705 35397 ft 412 kts 346°
2026-04-30 21:38 49.76598 20.76633 35395 ft 412 kts 346°
2026-04-30 21:39 49.81976 20.73541 35396 ft 411 kts 346°
2026-04-30 21:39 49.87342 20.70448 35397 ft 411 kts 346°
2026-04-30 21:40 49.92668 20.67378 35397 ft 411 kts 346°
2026-04-30 21:40 49.98043 20.64284 35394 ft 410 kts 346°
2026-04-30 21:41 50.03361 20.61208 35396 ft 410 kts 346°
2026-04-30 21:41 50.08708 20.58101 35399 ft 409 kts 346°
2026-04-30 21:42 50.14043 20.54999 35398 ft 408 kts 346°
2026-04-30 21:42 50.19344 20.51912 35394 ft 408 kts 346°
2026-04-30 21:43 50.24642 20.48814 35394 ft 408 kts 346°
2026-04-30 21:43 50.29953 20.45688 35395 ft 408 kts 347°
2026-04-30 21:44 50.35278 20.42556 35398 ft 407 kts 347°
2026-04-30 21:44 50.40553 20.39451 35395 ft 406 kts 347°
2026-04-30 21:45 50.45841 20.36335 35394 ft 406 kts 347°
2026-04-30 21:45 50.51114 20.33207 35397 ft 406 kts 347°
2026-04-30 21:46 50.56394 20.30067 35404 ft 405 kts 347°
2026-04-30 21:46 50.61651 20.26932 35395 ft 405 kts 347°
2026-04-30 21:47 50.66939 20.23851 35395 ft 402 kts 349°
2026-04-30 21:47 50.72258 20.21162 35402 ft 400 kts 351°
2026-04-30 21:48 50.77548 20.18614 35399 ft 399 kts 351°
2026-04-30 21:48 50.82819 20.15992 35403 ft 399 kts 351°
2026-04-30 21:49 50.88098 20.13299 35403 ft 398 kts 351°
2026-04-30 21:49 50.93368 20.10604 35403 ft 397 kts 351°
2026-04-30 21:50 50.98591 20.07948 35402 ft 396 kts 351°
2026-04-30 21:50 51.03836 20.05276 35400 ft 394 kts 351°
2026-04-30 21:51 51.09068 20.02614 35399 ft 394 kts 351°
2026-04-30 21:51 51.14257 19.99964 35395 ft 393 kts 351°
2026-04-30 21:52 51.19463 19.97292 35401 ft 392 kts 351°
2026-04-30 21:52 51.24619 19.94621 35406 ft 391 kts 351°
2026-04-30 21:53 51.29794 19.91928 35397 ft 390 kts 351°
2026-04-30 21:53 51.34935 19.89252 35395 ft 389 kts 351°
2026-04-30 21:54 51.40098 19.86567 35386 ft 389 kts 351°
2026-04-30 21:54 51.45223 19.83900 35383 ft 388 kts 351°
2026-04-30 21:55 51.50361 19.81209 35379 ft 388 kts 351°
2026-04-30 21:55 51.55473 19.78526 35373 ft 388 kts 351°
2026-04-30 21:56 51.60620 19.75830 35368 ft 388 kts 351°
2026-04-30 21:56 51.65720 19.73156 35364 ft 388 kts 351°
2026-04-30 21:57 51.70860 19.70454 35362 ft 388 kts 350°
2026-04-30 21:57 51.76003 19.67728 35360 ft 388 kts 350°
2026-04-30 21:58 51.81108 19.65023 35358 ft 388 kts 351°
2026-04-30 21:58 51.86264 19.62467 35360 ft 386 kts 352°
2026-04-30 21:59 51.91397 19.60007 35355 ft 387 kts 352°
2026-04-30 22:00 51.99153 19.56233 35364 ft 387 kts 351°
2026-04-30 22:00 52.06873 19.52426 35362 ft 387 kts 351°
2026-04-30 22:01 52.12017 19.49877 35363 ft 388 kts 351°
2026-04-30 22:01 52.17181 19.47310 35364 ft 388 kts 351°
2026-04-30 22:02 52.22325 19.44749 35359 ft 388 kts 351°
2026-04-30 22:02 52.27501 19.42178 35361 ft 388 kts 351°
2026-04-30 22:03 52.32654 19.39615 35361 ft 388 kts 351°
2026-04-30 22:03 52.37828 19.37021 35359 ft 389 kts 350°
2026-04-30 22:04 52.42973 19.34433 35359 ft 389 kts 350°
2026-04-30 22:05 52.50762 19.30545 35350 ft 390 kts 350°
2026-04-30 22:05 52.55947 19.27925 35368 ft 390 kts 350°
2026-04-30 22:06 52.61114 19.25309 35361 ft 390 kts 350°
2026-04-30 22:06 52.68885 19.21370 35361 ft 390 kts 349°
2026-04-30 22:07 52.74079 19.18702 35365 ft 391 kts 349°
2026-04-30 22:07 52.79290 19.16032 35371 ft 391 kts 349°
2026-04-30 22:08 52.84466 19.13389 35375 ft 392 kts 349°
2026-04-30 22:08 52.89694 19.10712 35378 ft 392 kts 349°
2026-04-30 22:09 52.94880 19.08042 35376 ft 392 kts 349°
2026-04-30 22:09 53.00112 19.05337 35380 ft 392 kts 349°
2026-04-30 22:10 53.05324 19.02641 35373 ft 392 kts 349°
2026-04-30 22:10 53.10530 18.99938 35380 ft 393 kts 349°
2026-04-30 22:11 53.18345 18.95877 35380 ft 393 kts 349°
2026-04-30 22:12 53.23547 18.93166 35381 ft 393 kts 349°
2026-04-30 22:12 53.28778 18.90428 35388 ft 393 kts 349°
2026-04-30 22:13 53.33978 18.87699 35383 ft 393 kts 349°
2026-04-30 22:13 53.39198 18.84968 35390 ft 393 kts 348°
2026-04-30 22:14 53.44423 18.82209 35387 ft 393 kts 348°
2026-04-30 22:14 53.49623 18.79447 35394 ft 393 kts 348°
2026-04-30 22:15 53.54782 18.76213 35391 ft 398 kts 343°
2026-04-30 22:15 53.59845 18.72550 35395 ft 398 kts 343°
2026-04-30 22:16 53.64939 18.68848 35394 ft 398 kts 343°
2026-04-30 22:17 53.75072 18.61472 35400 ft 397 kts 343°
2026-04-30 22:17 53.82693 18.55897 35399 ft 397 kts 343°
2026-04-30 22:18 53.90268 18.50326 35401 ft 397 kts 343°
2026-04-30 22:19 53.97863 18.44721 35391 ft 396 kts 342°
2026-04-30 22:20 54.05420 18.39129 35391 ft 396 kts 342°
2026-04-30 22:20 54.13023 18.33483 35389 ft 396 kts 342°
2026-04-30 22:21 54.18053 18.29734 35388 ft 396 kts 342°
2026-04-30 22:21 54.23106 18.25956 35393 ft 396 kts 342°
2026-04-30 22:22 54.27311 18.22805 35387 ft 396 kts 342°
2026-04-30 22:22 54.33114 18.18436 35390 ft 396 kts 342°
2026-04-30 22:23 54.37311 18.15237 35385 ft 396 kts 342°
2026-04-30 22:23 54.43168 18.10751 35390 ft 395 kts 342°
2026-04-30 22:24 54.47348 18.07546 35386 ft 395 kts 342°
2026-04-30 22:24 54.52377 18.03685 35390 ft 395 kts 342°
2026-04-30 22:25 54.57371 17.99842 35388 ft 394 kts 342°
2026-04-30 22:25 54.62384 17.95967 35385 ft 394 kts 341°
2026-04-30 22:26 54.69910 17.90140 35387 ft 394 kts 341°
2026-04-30 22:27 54.74910 17.86266 35382 ft 395 kts 341°
2026-04-30 22:27 54.82403 17.80410 35385 ft 395 kts 341°
2026-04-30 22:28 54.89922 17.74499 35390 ft 395 kts 341°
2026-04-30 22:29 54.99917 17.66608 35392 ft 395 kts 341°
2026-04-30 22:31 55.17510 17.53201 35385 ft 394 kts 341°
2026-04-30 22:32 55.30016 17.43400 35385 ft 394 kts 341°
2026-04-30 22:33 55.42482 17.33408 35381 ft 394 kts 341°
2026-04-30 22:35 55.54939 17.23394 35379 ft 394 kts 341°
2026-04-30 22:36 55.65171 17.17849 35377 ft 380 kts
2026-04-30 22:36 55.67794 17.18401 35378 ft 378 kts 14°
2026-04-30 22:37 55.77824 17.23914 35380 ft 378 kts 17°
2026-04-30 22:38 55.87856 17.29515 35386 ft 378 kts 17°
2026-04-30 22:39 55.95400 17.33758 35390 ft 378 kts 17°
2026-04-30 22:40 56.10388 17.42237 35399 ft 377 kts 17°
2026-04-30 22:41 56.22851 17.49368 35400 ft 376 kts 17°
2026-04-30 22:43 56.37768 17.57946 35393 ft 375 kts 17°
2026-04-30 22:44 56.47684 17.63682 35390 ft 374 kts 17°
2026-04-30 22:45 56.62516 17.72327 35395 ft 373 kts 17°
2026-04-30 22:47 56.77263 17.80972 35385 ft 371 kts 17°
2026-04-30 22:48 56.87096 17.86799 35385 ft 370 kts 17°
2026-04-30 22:49 57.01769 17.95551 35385 ft 369 kts 17°
2026-04-30 22:51 57.16355 18.04350 35380 ft 368 kts 17°
2026-04-30 22:52 57.23663 18.08770 35375 ft 368 kts 17°
2026-04-30 22:53 57.33352 18.14650 35367 ft 367 kts 17°
2026-04-30 22:53 57.40600 18.19063 35350 ft 366 kts 17°
2026-04-30 22:55 57.52687 18.26462 35340 ft 366 kts 17°
2026-04-30 22:56 57.62365 18.32436 35343 ft 365 kts 14°
2026-04-30 22:56 57.69870 18.32200 35335 ft 370 kts 346°
2026-04-30 22:57 57.74733 18.29068 35330 ft 371 kts 346°
2026-04-30 22:57 57.79628 18.25924 34944 ft 370 kts 346°
2026-04-30 22:58 57.84477 18.22826 34475 ft 369 kts 346°
2026-04-30 22:59 57.91775 18.18137 33668 ft 369 kts 346°
2026-04-30 22:59 57.99007 18.13456 32864 ft 365 kts 346°